[[{"header":{"parameterUnit":"m.s-1","parameterCategory":1,"la1":30.2991,"la2":30.254,"lo1":-89.0895,"lo2":-89.0444,"dy":0.0017,"dx":0.0017,"nx":28,"ny":28,"refTime":"2025-08-27T21:00:00:Z","depth":0,"parameterNumber":2,"parameterNumberName":"U-component_of_WINDS"},"data":[0,0,0,0,0,0,0,0,0,0,0,0,0,0,0,0,0,0,0,0,0,0,0,0,0,0,0,0,0,0,0,0,0,0,0,0,0,0,0,0,0,0,0,0,0,0,0,0,0,0,0,0,0,0,0,0,0,0,1.6645,1.6645,0,1.6703,1.6703,1.6704,1.6701,1.67,1.6699,1.6699,1.6758,1.676,1.6762,0,0,0,0,0,0,0,0,0,0,0,0,0,1.6531,1.6533,1.6645,1.6645,1.6646,1.6702,1.6703,1.6704,1.6701,1.67,1.6699,1.6698,1.6757,1.676,1.6763,0,0,0,0,0,0,0,0,0,0,0,0,0,1.6584,1.6534,1.6645,1.6652,1.6653,1.6702,1.6703,1.6704,1.6701,1.67,1.6699,1.6698,1.6756,1.676,1.6763,1.681,0,0,1.6774,1.6775,0,0,0,0,0,0,0,0,1.6581,1.6588,1.665,1.6651,1.6653,1.6693,1.6685,1.674,1.6702,1.6683,1.6699,1.6697,1.6737,1.6742,1.6756,1.6812,1.6815,1.6774,1.6776,1.6778,1.6779,0,0,0,0,0,0,0,1.6577,1.6585,1.6668,1.6651,1.6652,1.6651,1.6658,1.6695,1.6716,1.6684,1.6684,1.6691,1.6738,1.6753,1.6757,1.6816,1.6774,1.6777,1.6779,1.6781,1.6911,1.6913,0,0,0,0,0,0,1.6572,1.6582,1.6666,1.6669,1.6613,1.6654,1.6661,1.6681,1.6716,1.672,1.6692,1.6691,1.6747,1.6753,1.6759,1.6815,1.6778,1.6781,1.6783,1.691,1.6912,1.6913,0,0,0,0,0,0,1.657,1.6579,1.6663,1.6626,1.6636,1.6658,1.668,1.6683,1.6698,1.6722,1.6726,1.6703,1.6746,1.6754,1.6797,1.6817,1.6783,1.6786,1.6908,1.691,1.6912,1.6926,0,0,0,0,0,0,1.6566,1.6579,1.6597,1.6626,1.6638,1.67,1.6682,1.6685,1.6704,1.6703,1.6733,1.6737,1.6746,1.6791,1.68,1.6821,1.6789,1.6907,1.6909,1.6912,1.6924,1.6929,1.6933,0,0,0,0,0,1.6562,1.6599,1.6598,1.6608,1.6662,1.6701,1.6708,1.6718,1.6706,1.6724,1.6739,1.6736,1.6813,1.6796,1.6806,1.6828,1.6905,1.6908,1.6911,1.6922,1.6928,1.6932,0,0,0,0,0,0,1.6572,1.6603,1.6602,1.6649,1.6673,1.6701,1.6724,1.6723,1.6751,1.6748,1.6759,1.6766,1.6808,1.6822,1.6802,1.6874,1.6858,1.6863,1.6863,1.6868,1.6872,1.6867,1.6792,0,0,0,0,0,1.6579,1.6609,1.6635,1.6674,1.6685,1.6703,1.672,1.6725,1.675,1.676,1.6778,1.6802,1.6831,1.6851,1.6879,1.6927,1.6932,1.6947,1.6951,1.6954,1.6958,1.6982,1.6988,1.6923,1.6923,1.6923,0,0,1.6595,1.6616,1.6634,1.6676,1.6695,1.6725,1.6711,1.6744,1.6766,1.6765,1.6805,1.682,1.6847,1.6891,1.6912,1.6905,1.6977,1.6958,1.696,1.6963,1.6986,1.6992,1.6998,1.6925,1.6925,1.6924,0,0,1.6639,1.6658,1.6692,1.6711,1.6739,1.675,1.6758,1.6786,1.6795,1.6836,1.6836,1.6862,1.6913,1.6932,1.6948,1.6998,1.6996,1.7007,1.7028,1.7052,1.7057,1.7062,1.7078,1.7084,1.7011,1.7011,1.7011,0,1.6655,1.67,1.671,1.6742,1.676,1.676,1.6794,1.6812,1.6848,1.686,1.6852,1.6914,1.6933,1.6981,1.6993,1.7007,1.7016,1.7003,1.7056,1.706,1.7065,1.7081,1.7087,1.7012,1.7012,1.7012,1.7012,0,1.6718,1.6749,1.6773,1.6807,1.6828,1.6861,1.6875,1.6895,1.6898,1.691,1.6951,1.6973,1.7005,1.7017,1.7021,1.7066,1.706,1.7054,1.7037,1.7072,1.7087,1.7093,1.7014,1.7014,1.7013,1.7013,0,0,1.6769,1.6808,1.6816,1.6831,1.6862,1.6886,1.6918,1.695,1.6966,1.6991,1.7018,1.706,1.7054,1.7072,1.7078,1.7099,1.7135,1.709,1.7091,1.7096,1.7184,1.7188,1.7194,1.7134,1.7136,1.7137,1.7181,0,1.6815,1.6873,1.6882,1.6933,1.6961,1.6961,1.6989,1.7011,1.7022,1.7048,1.7061,1.709,1.708,1.7091,1.7112,1.7126,1.7153,1.7123,1.7159,1.716,1.715,1.7202,1.7207,1.7248,1.7187,1.7188,1.7189,0,1.6877,1.6902,1.6956,1.6981,1.6993,1.7018,1.7047,1.7071,1.7095,1.7102,1.7122,1.7125,1.7158,1.7142,1.7187,1.7166,1.7181,1.719,1.7192,1.7195,1.7176,1.7205,1.7261,1.7267,1.7198,1.7198,1.7197,0,1.6907,1.6955,1.6993,1.7006,1.7037,1.7054,1.7068,1.709,1.7108,1.7133,1.7145,1.7173,1.7189,1.7211,1.7221,1.7208,1.7265,1.7249,1.7271,1.727,1.7282,1.7281,1.734,1.7294,1.7294,1.7293,1.7293,0,1.6957,1.6989,1.7006,1.7029,1.7065,1.7075,1.711,1.7123,1.7143,1.7168,1.7171,1.7194,1.7207,1.7232,1.724,1.7275,1.7283,1.7289,1.729,1.7288,1.7287,1.7297,1.7294,1.7295,1.7295,1.7294,1.7294,0,1.6997,1.701,1.705,1.7076,1.7083,1.7108,1.713,1.7152,1.7163,1.7195,1.7203,1.722,1.725,1.7263,1.7299,1.7305,1.7345,1.7345,1.7336,1.7337,1.7357,1.7354,1.7423,1.7432,1.7381,1.7382,1.7382,0,1.7027,1.7052,1.7079,1.7096,1.711,1.7138,1.7155,1.7166,1.7184,1.7213,1.7231,1.726,1.7284,1.7332,1.7347,1.7375,1.7375,1.7397,1.7379,1.7376,1.7374,1.7372,1.7374,1.74,1.7401,1.7401,1.7402,0,1.7079,1.7084,1.7109,1.7137,1.7158,1.718,1.7202,1.7216,1.7229,1.725,1.728,1.7298,1.7335,1.7364,1.7392,1.7406,1.7406,1.7407,1.7414,1.7411,1.7404,1.7406,1.7344,1.7406,1.7405,1.7405,1.7405,1.7405,1.7114,1.7135,1.7158,1.7186,1.7203,1.7223,1.7244,1.7258,1.7283,1.7313,1.7318,1.735,1.7372,1.741,1.7425,1.7449,1.7444,1.7453,1.7455,1.7457,1.7458,1.7401,1.7455,1.7455,1.7455,1.7455,1.7455,0,1.7165,1.7179,1.7205,1.7234,1.7256,1.7254,1.7278,1.7296,1.7324,1.7344,1.7368,1.7402,1.7429,1.7447,1.7475,1.7491,1.7491,1.7498,1.7496,1.7499,1.7462,1.7453,1.7497,1.7497,1.7497,1.7497,1.7497,1.7497,1.7194,1.7229,1.7236,1.728,1.7294,1.7324,1.7338,1.7356,1.7372,1.741,1.7433,1.7444,1.7463,1.7492,1.7517,1.7522,1.7531,1.7538,1.7542,1.7506,1.7502,1.7498,1.7489,1.754,1.754,1.7577,1.7577,1.7577]},{"header":{"parameterUnit":"m.s-1","parameterCategory":1,"la1":30.2991,"la2":30.254,"lo1":-89.0895,"lo2":-89.0444,"dy":0.0017,"dx":0.0017,"nx":28,"ny":28,"refTime":"2025-08-27T21:00:00:Z","depth":0,"parameterNumber":3,"parameterNumberName":"V-component_of_WINDS"},"data":[0,0,0,0,0,0,0,0,0,0,0,0,0,0,0,0,0,0,0,0,0,0,0,0,0,0,0,0,0,0,0,0,0,0,0,0,0,0,0,0,0,0,0,0,0,0,0,0,0,0,0,0,0,0,0,0,0,0,2.3613,2.3612,0,2.3586,2.3586,2.3585,2.3561,2.356,2.356,2.356,2.3532,2.3531,2.3531,0,0,0,0,0,0,0,0,0,0,0,0,0,2.3641,2.3641,2.3613,2.3612,2.3612,2.3586,2.3586,2.3585,2.3561,2.356,2.356,2.3559,2.3532,2.3531,2.3531,0,0,0,0,0,0,0,0,0,0,0,0,0,2.3623,2.3641,2.3613,2.3597,2.3595,2.3586,2.3586,2.3585,2.3561,2.356,2.356,2.3559,2.3532,2.3531,2.3531,2.3535,0,0,2.3529,2.3528,0,0,0,0,0,0,0,0,2.3624,2.3622,2.3599,2.3598,2.3596,2.3576,2.3585,2.3569,2.3561,2.3574,2.356,2.3559,2.3547,2.3545,2.3541,2.3534,2.3533,2.3528,2.3528,2.3528,2.3528,0,0,0,0,0,0,0,2.3625,2.3623,2.3602,2.3599,2.3597,2.359,2.3587,2.3582,2.3563,2.3573,2.3571,2.3568,2.3546,2.3542,2.354,2.3533,2.3528,2.3528,2.3527,2.3527,2.3527,2.3527,0,0,0,0,0,0,2.3629,2.3624,2.3603,2.3601,2.3609,2.359,2.3587,2.3583,2.3563,2.356,2.3568,2.3567,2.3543,2.3541,2.3539,2.3542,2.3528,2.3527,2.3527,2.3526,2.3527,2.3527,0,0,0,0,0,0,2.363,2.3628,2.3604,2.3612,2.3609,2.359,2.3586,2.3583,2.3578,2.356,2.3556,2.3568,2.3543,2.354,2.3536,2.3541,2.3527,2.3526,2.3526,2.3527,2.3527,2.355,0,0,0,0,0,0,2.3631,2.3628,2.363,2.3613,2.3608,2.3602,2.3586,2.3582,2.3577,2.3575,2.3558,2.3555,2.3542,2.3537,2.3536,2.354,2.3526,2.3525,2.3526,2.3527,2.3548,2.3551,2.3553,0,0,0,0,0,2.3632,2.3638,2.363,2.3628,2.3611,2.3603,2.36,2.3585,2.3578,2.3579,2.3567,2.3556,2.3541,2.3537,2.3535,2.3539,2.3525,2.3526,2.3527,2.3547,2.355,2.3553,0,0,0,0,0,0,2.3656,2.3635,2.3627,2.3627,2.3617,2.3599,2.36,2.3589,2.3581,2.3579,2.3561,2.3557,2.3555,2.3547,2.3543,2.3542,2.3531,2.3532,2.3547,2.355,2.3553,2.3555,2.3525,0,0,0,0,0,2.3662,2.3658,2.3639,2.3641,2.3636,2.3619,2.3615,2.3604,2.3593,2.3589,2.3576,2.3565,2.3558,2.3554,2.3546,2.3547,2.3542,2.3548,2.3551,2.3553,2.3553,2.3552,2.3554,2.353,2.353,2.353,0,0,2.3673,2.3661,2.3659,2.3645,2.3636,2.3632,2.3616,2.3612,2.3608,2.3588,2.3583,2.3574,2.356,2.3559,2.3557,2.3552,2.3559,2.3554,2.3556,2.3555,2.3553,2.3555,2.3557,2.3531,2.3531,2.3531,0,0,2.3691,2.3681,2.3681,2.3672,2.3659,2.3647,2.3647,2.363,2.3623,2.3618,2.3603,2.3598,2.3586,2.3577,2.357,2.3583,2.3572,2.3581,2.3594,2.3592,2.3594,2.3596,2.3599,2.3601,2.3582,2.3582,2.3582,0,2.3706,2.3699,2.3683,2.3679,2.3673,2.3655,2.3654,2.3646,2.3631,2.3627,2.3621,2.3604,2.3594,2.3589,2.3592,2.3588,2.3587,2.3583,2.3595,2.3597,2.3598,2.3601,2.3603,2.3583,2.3583,2.3583,2.3583,0,2.3718,2.3713,2.3715,2.37,2.3694,2.3692,2.3675,2.3671,2.3661,2.365,2.3644,2.3631,2.362,2.3618,2.3608,2.3611,2.3608,2.3599,2.3588,2.3602,2.3604,2.3605,2.3585,2.3585,2.3584,2.3584,0,0,2.3751,2.3727,2.3727,2.372,2.3703,2.3699,2.3695,2.3684,2.3681,2.367,2.3667,2.3656,2.3647,2.364,2.3629,2.3628,2.3637,2.3618,2.3618,2.3622,2.3639,2.3646,2.3648,2.363,2.363,2.363,2.364,0,2.3765,2.3758,2.3743,2.3741,2.3736,2.3718,2.3715,2.3704,2.3693,2.3686,2.3674,2.3667,2.3656,2.3652,2.365,2.3637,2.3641,2.3636,2.3625,2.3625,2.3629,2.3649,2.3656,2.3666,2.3641,2.3641,2.3641,0,2.3781,2.3772,2.3769,2.3751,2.3748,2.3746,2.3734,2.3728,2.3715,2.3707,2.3699,2.3686,2.368,2.367,2.3662,2.3659,2.3654,2.3646,2.3646,2.3645,2.3634,2.3647,2.3669,2.3671,2.3643,2.3643,2.3643,0,2.3804,2.3791,2.3787,2.3781,2.3761,2.376,2.3751,2.3737,2.3731,2.372,2.3716,2.3705,2.3699,2.369,2.3674,2.3669,2.3667,2.3656,2.366,2.366,2.366,2.366,2.3681,2.3658,2.3658,2.3658,2.3658,0,2.3821,2.382,2.3797,2.3795,2.3793,2.3775,2.3773,2.3763,2.375,2.3745,2.3729,2.3724,2.3703,2.3696,2.3683,2.3678,2.3675,2.3668,2.3665,2.3669,2.367,2.3665,2.3664,2.3658,2.3658,2.3658,2.3658,0,2.3847,2.3831,2.3826,2.3807,2.3802,2.3801,2.3784,2.3781,2.3769,2.3762,2.376,2.3741,2.3731,2.3714,2.37,2.3691,2.3688,2.3682,2.3693,2.369,2.3695,2.3694,2.3713,2.3714,2.369,2.3691,2.3691,0,2.3859,2.3857,2.3838,2.3833,2.3825,2.3818,2.3812,2.3794,2.3788,2.3772,2.377,2.3759,2.375,2.3735,2.3719,2.3708,2.3701,2.3709,2.37,2.3704,2.3701,2.3701,2.37,2.3711,2.3711,2.3711,2.3712,0,2.3881,2.3873,2.3865,2.3854,2.3847,2.3837,2.3826,2.3823,2.3803,2.3797,2.3787,2.3779,2.3764,2.3753,2.3739,2.3729,2.3717,2.3715,2.3715,2.3719,2.3725,2.3721,2.3698,2.3714,2.3714,2.3714,2.3714,2.3714,2.3899,2.3897,2.3883,2.3874,2.3864,2.3854,2.385,2.3837,2.3828,2.3815,2.3805,2.3795,2.378,2.376,2.3751,2.3743,2.3737,2.3737,2.3737,2.3738,2.3739,2.3726,2.374,2.374,2.374,2.374,2.374,0,2.392,2.391,2.3902,2.3888,2.388,2.3869,2.3857,2.3851,2.3843,2.3831,2.3821,2.3809,2.3798,2.3781,2.3768,2.3765,2.3759,2.3762,2.3762,2.376,2.3745,2.3746,2.3767,2.3767,2.3767,2.3767,2.3767,2.3767,2.393,2.3925,2.3916,2.3905,2.3895,2.3886,2.3879,2.387,2.386,2.3847,2.3838,2.3827,2.3812,2.3798,2.3787,2.3782,2.3778,2.3783,2.3776,2.3763,2.3761,2.3758,2.3759,2.3782,2.3782,2.3791,2.3791,2.3791]}]]